EHI
0 0 0 0 0 0 0 0 0 0 0 0 0 0 0 0 0 0 0 0 0 0 0 0 0 0 0 0 0 0 0 0 0 0 0 0 0 0 0 0 0 0 0
0 0 0 0 0 0 0 0 0 0 0 0 0 0 0 0 0 0 0 0 0 0 0 0 0 0 0 0 0 0 0 0 0 0 0 0 0 0 0 0 0 0 0
0 0 0 0 0 0 0 0 0 0 0 0 0 0 0 0 0 0 0 0 0 0 0 0 0 0 0 0 0 0 0 0 0 0 0 0 0 0 0 0 0 0 0
0 0 0 0 0 0 0 0 0 0 0 0 0 0 0 0 0 0 0 0 0 0 0 0 0 0 0 0 0 0 0 0 0 0 0 0 0 0 0 0 0 0 0
0 0 0 0 0 0 0 0 0 0 0 0 0 0 0 0 0 0 0 0 0 0 0 0 0 0 0 0 0 0 0 0 0 0 0 0 0 0 0 0 0 0 0
0 0 0 0 0 0 0 0 0 0 0 0 0 0 0 0 0 0 0 0 0 0 0 0 0 0 0 0 0 0 0 0 0 0 0 0 0 0 0 0 0 0 0
0 0 0 0 0 0 0 0 0 0 0 0 0 0 0 0 0 0 0 0 0 0 0 0 0 0 0 0 0 0 0 0 0 0 0 0 0 0 0 0 0 0 0
0 0 0 0 0 0 0 0 0 0 0 0 0 0 0 0 0 0 0 0 0 0 0 0 0 0 0 0 0 0 0 0 0 0 0 0 0 0 0 0 0 0 0
0 0 0 0 0 0 0 0 0 0 0 0 0 0 0 0 0 0 0 0 0 0 0 0 0 0 0 0 0 0 0 0 0 0 0 0 0 0 0 0 0 0 0
0 0 0 0 0 0 0 0 0 0 0 0 0 0 0 0 0 0 0 0 0 0 0 0 0 0 0 0 0 0 0 0 0 0 0 0 0 0 0 0 0 0 0
0 0 0 0 0 0 0 0 0 0 0 0 0 0 0 0 0 0 0 0 0 0 0 0 0 0 0 0 0 0 0 0 0 0 0 0 0 0 0 0 0 0 0
0 0 0 0 0 0 0 0 0 0 0 0 0 0 0 0 0 0 0 0 0 0 0 0 0 0 0 0 0 0 0 0 0 0 0 0 0 0 0 0 0 0 0
0 0 0 0 0 0 0 0 0 0 0 0 0 0 0 0 0 0 0 0 0 0 0 0 0 0 0 0 0 0 0 0 0 0 0 0 0 0 0 0 0 0 0
0 0 0 0 0 0 0 0 0 0 0 0 0 0 0 0 0 0 0 0 0 0 0 0 0 0 0 0 0 0 0 0 0 0 0 0 0 0 0 0 0 0 0
0 0 0 0 0 0 0 0 0 0 0 0 0 0 0 0 0 0 0 0 0 0 0 0 0 0 0 0 0 0 0 0 0 0 0 0 0 0 0 0 0 0 0
0 0 0 0 0 0 0 0 0 0 0 0 0 0 0 0 0 0 0 0 0 0 0 0 0 0 0 0 0 0 0 0 0 0 0 0 0 0 0 0 0 0 0
0 0 0 0 0 0 0 0 0 0 0 0 0 0 0 0 0 0 0 0 0 0 0 0 0 0 0 0 0 0 0 0 0 0 0 0 0 0 0 0 0 0 0
0 0 0 0 0 0 0 0 0 0 0 0 0 0 0 0 0 0 0 0 0 0 0 0 0 0 0 0 0 0 0 0 0 0 0 0 0 0 0 0 0 0 0
0 0 0 0 0 0 0 0 0 0 0 0 0 0 0 0 0 0 0 0 0 0 0 0 0 0 0 0 0 0 0 0 0 0 0 0 0 0 0 0 0 0 0
0 0 0 0 0 0 0 0 0 0 0 0 0 0 0 0 0 0 0 0 0 0 0 0 0 0 0 0 0 0 0 0 0 0 0 0 0 0 0 0 0 0 0
0 0 0 0 0 0 0 0 0 0 0 0 0 0 0 0 0 0 0 0 0 0 0 0 0 0 0 0 0 0 0 0 0 0 0 0 0 0 0 0 0 0 0
0 0 0 0 0 0 0 0 0 0 0 0 0 0 0 0 0 0 0 0 0 0 0 0 0 0 0 0 0 0 0 0 0 0 0 0 0 0 0 0 0 0 0
0 0 0 0 0 0 0 0 0 0 0 0 0 0 0 0 0 0 0 0 0 0 0 0 0 0 0 0 0 0 0 0 0 0 0 0 0 0 0 0 0 0 0
0 0 0 0 0 0 0 0 0 0 0 0 0 0 0 0 0 0 0 0 0 0 0 0 0 0 0 0 0 0 0 0 0 0 0 0 0 0 0 0 0 0 0
0 0 0 0 0 0 0 0 0 0 0 0 0 0 0 0 0 0 0 0 0 0 0 0 0 0 0 0 0 0 0 0 0 0 0 0 0 0 0 0 0 0 0
0 0 0 0 0 0 0 0 0 0 0 0 0 0 0 0 0 0 0 0 0 0 0 0 0 0 0 0 0 0 0 0 0 0 0 0 0 0 0 0 0 0 0
Wind_Speed
4 4 4 4 4 4 4 4 4 4 3 1 1 1 2 2 2 3 4 3 3 3 3 2 2 3 2 3 3 3 2 2 2 2 1 1 1 1 1 1 1 3 4
5 4 4 4 4 4 4 4 3 3 2 1 1 1 1 1 1 2 2 3 3 3 3 3 2 2 2 2 3 3 2 1 2 2 2 2 3 2 0 0 1 2 3
5 5 5 4 4 4 3 3 2 3 3 2 1 1 1 1 1 1 1 2 3 3 3 3 3 2 2 2 2 3 2 2 1 2 3 3 2 1 2 1 1 2 2
5 5 5 5 4 4 3 3 3 3 3 3 3 2 2 1 1 0 0 1 1 2 2 2 2 2 2 2 2 2 2 2 2 1 2 3 3 3 2 2 1 2 2
5 5 5 5 5 4 4 4 3 3 3 3 3 3 2 1 1 1 1 0 0 1 1 1 1 1 1 2 2 2 2 1 2 2 2 2 3 4 4 3 2 2 2
4 5 5 5 5 5 4 4 4 3 3 3 3 3 3 2 2 2 1 1 1 1 1 1 1 1 1 1 2 2 2 1 2 1 2 2 2 2 3 4 4 4 2
4 5 6 6 5 5 5 5 5 4 4 4 4 4 4 4 4 3 2 2 2 1 1 2 2 1 1 2 2 2 2 2 2 2 1 2 2 3 3 5 4 5 3
3 4 5 5 5 5 5 5 5 4 4 4 4 4 4 3 3 4 3 3 2 2 2 3 3 2 2 2 2 2 2 2 2 2 2 2 2 2 3 3 4 4 4
2 3 4 4 4 5 5 5 5 5 5 5 5 5 5 5 4 4 4 4 3 3 3 3 3 3 3 3 3 3 2 2 3 3 3 3 2 2 2 3 3 4 4
2 2 3 3 3 4 4 5 5 5 5 5 5 4 5 5 5 5 5 5 4 4 4 4 4 4 3 4 4 3 3 3 3 2 3 3 2 2 2 2 3 4 5
1 2 2 2 2 3 3 4 4 4 4 5 5 5 5 5 5 5 5 5 5 5 5 5 5 5 4 4 4 4 4 4 4 3 4 4 3 3 2 3 3 4 4
1 1 2 2 2 2 2 3 3 4 4 4 4 5 5 5 5 5 5 5 6 5 5 5 5 5 5 5 5 5 5 5 5 5 5 4 3 4 3 3 4 4 4
2 2 2 2 2 1 2 2 2 3 3 3 4 4 4 5 5 5 5 5 5 5 5 6 6 6 6 6 6 6 6 6 6 6 6 5 5 5 4 4 4 4 4
3 2 2 2 1 1 2 2 2 2 2 3 4 4 4 5 5 5 5 5 5 5 6 6 6 6 6 6 6 6 6 6 6 6 6 6 6 6 6 5 5 4 5
4 4 3 2 2 2 2 2 3 2 3 3 4 4 4 4 4 5 5 5 5 5 5 6 6 6 6 6 6 6 7 7 7 6 7 7 7 7 6 5 5 5 5
5 5 4 4 4 3 3 3 3 3 3 4 4 3 3 4 4 4 4 4 5 5 5 6 6 6 5 7 9 8 7 7 7 7 7 6 7 9 10 10 8 7 6
6 6 5 5 4 4 4 4 3 3 3 4 4 3 4 4 4 4 4 5 5 5 5 6 6 6 6 8 9 10 7 7 7 7 7 5 5 8 7 8 10 9 10
6 6 5 5 4 4 4 3 3 3 4 4 4 4 4 4 4 4 5 5 5 5 5 5 6 6 6 8 9 9 8 7 7 7 7 7 7 6 7 7 7 7 7
5 5 5 5 5 4 3 3 4 4 4 4 4 4 4 4 4 5 5 5 5 5 5 5 6 7 7 8 8 8 6 6 7 7 7 8 8 8 9 8 8 7 6
4 4 4 4 5 4 3 4 4 4 5 4 4 4 4 5 5 5 5 5 5 5 5 5 6 6 7 7 8 8 5 6 6 6 7 9 10 9 10 9 8 8 6
4 4 4 4 4 3 3 5 5 5 4 4 4 4 4 5 5 5 5 5 5 5 5 6 6 6 6 6 8 8 6 6 6 6 5 5 9 11 11 10 8 8 6
4 4 4 4 3 3 4 6 6 4 3 4 4 4 4 4 4 5 5 5 5 5 5 5 5 4 5 6 7 9 10 8 7 6 5 5 8 10 11 9 9 9 8
4 4 4 5 4 4 5 6 5 4 4 4 5 4 4 4 4 4 5 4 4 4 4 4 5 4 4 5 8 10 10 11 8 6 7 7 8 9 8 9 10 8 6
5 4 5 5 5 5 5 6 5 4 4 5 5 4 4 4 4 4 4 4 5 5 5 5 5 5 4 4 4 4 5 7 7 6 6 8 9 8 7 7 6 6 5
5 5 5 6 7 6 6 6 5 4 5 6 5 5 5 4 4 4 4 6 6 6 6 5 5 5 6 6 7 6 5 5 5 5 4 5 5 5 5 5 5 4 5
6 6 6 7 7 6 6 5 5 5 6 5 5 4 4 4 4 4 5 7 9 9 11 11 10 8 10 10 11 11 11 10 10 7 6 6 6 6 6 5 5 5 5
Wind_Direction
142 137 138 134 127 124 122 121 117 112 111 107 94 91 88 80 72 60 48 38 31 28 32 30 32 22 20 9 358 347 339 348 334 278 254 210 184 140 64 44 31 35 23
158 154 151 149 148 142 138 130 128 128 124 105 80 43 77 85 66 61 53 33 30 26 28 17 21 21 8 10 4 354 334 346 355 315 283 255 199 167 115 25 20 13 8
173 167 169 169 164 157 156 149 156 159 150 150 149 147 148 163 161 108 66 34 26 26 25 22 10 10 358 359 1 353 340 331 347 344 310 294 288 311 200 210 329 354 350
180 176 176 176 174 166 160 165 170 170 165 173 188 197 201 193 142 101 82 53 34 23 17 14 6 360 351 352 351 346 327 311 304 299 311 305 312 286 275 209 218 312 323
190 185 183 181 177 168 166 169 168 169 176 189 193 207 214 197 162 188 218 274 30 8 360 348 336 338 343 339 327 319 318 301 295 295 289 273 273 269 275 278 281 288 293
198 192 182 178 173 169 170 173 176 178 183 192 201 214 219 218 217 223 233 242 242 249 258 277 288 295 307 315 311 302 293 284 278 273 275 283 278 280 277 281 292 293 288
197 192 187 185 182 180 181 185 189 192 195 204 211 216 223 227 233 242 243 249 246 244 246 253 259 269 276 280 283 285 286 274 267 264 265 275 286 297 289 284 290 290 288
196 194 192 192 191 192 194 196 203 207 206 213 219 223 225 231 238 242 249 253 256 255 253 249 252 255 258 257 254 258 265 270 262 255 249 251 260 274 279 286 294 290 276
196 194 191 194 197 200 202 205 210 216 215 221 225 227 228 232 238 242 245 250 250 251 244 243 246 248 250 253 252 248 244 252 258 258 246 247 253 260 271 276 279 284 288
174 183 185 192 201 207 206 208 216 223 224 225 226 229 232 234 240 242 241 244 248 246 244 239 240 241 240 241 244 248 246 248 251 256 256 250 249 249 257 265 269 267 275
165 164 168 179 187 193 198 205 213 222 223 225 228 232 233 233 237 241 244 245 246 242 242 240 238 237 237 237 238 242 244 246 249 246 249 251 253 252 249 251 256 259 264
182 170 168 170 178 191 204 215 222 228 232 230 231 234 236 234 236 241 244 243 244 241 239 238 238 237 236 236 239 242 242 244 246 247 247 249 246 248 250 247 250 257 260
197 187 182 185 191 207 227 235 237 239 240 235 236 239 239 239 242 245 245 244 243 242 238 235 238 239 238 237 239 242 243 243 247 248 247 247 245 247 245 246 251 256 260
221 217 214 214 224 242 252 259 262 256 250 241 239 243 246 248 250 251 247 244 241 242 242 240 241 242 241 239 239 239 242 243 244 245 245 246 245 249 251 249 251 254 257
234 230 236 244 250 259 269 277 275 264 250 246 247 252 256 254 253 251 248 245 241 242 243 244 242 241 240 238 237 237 240 244 245 244 244 245 246 251 253 254 254 253 255
238 237 241 249 254 258 267 273 272 267 256 251 256 263 263 258 254 253 251 248 247 245 243 244 245 243 241 240 240 243 243 244 247 249 247 244 240 240 242 246 252 257 260
244 242 243 250 257 259 259 265 269 265 255 254 259 260 260 259 259 257 254 252 252 249 248 249 250 250 249 245 245 242 248 247 246 247 247 243 240 239 242 240 241 244 247
248 250 253 257 260 260 258 263 262 257 254 256 259 262 262 262 263 258 257 257 254 249 249 250 252 256 254 248 248 246 245 247 247 245 245 247 246 237 237 242 245 248 249
258 261 262 262 260 257 254 254 254 254 253 256 261 263 263 264 262 259 259 258 255 252 250 252 252 254 256 247 248 247 247 247 249 247 245 244 247 241 234 240 245 249 252
266 266 265 261 255 252 244 248 255 257 257 260 264 265 262 262 263 263 262 259 255 255 256 254 254 253 258 253 248 245 249 252 253 250 245 241 245 245 236 238 242 247 250
273 269 261 256 256 251 242 251 259 261 266 266 264 263 260 259 263 265 259 256 253 256 255 257 256 253 254 254 250 247 247 251 254 253 251 243 237 242 240 241 246 247 251
273 268 263 263 261 245 242 253 260 266 264 259 261 263 264 262 258 258 257 252 249 253 256 257 261 256 250 248 250 249 250 252 253 254 254 247 237 241 244 243 242 243 243
262 260 259 267 265 248 242 254 264 264 256 254 258 263 264 258 250 248 250 250 246 249 255 257 261 264 260 253 252 254 256 253 253 254 254 251 245 246 247 243 242 239 235
251 251 255 261 265 257 249 254 263 258 250 254 260 261 260 260 253 246 240 243 245 248 251 256 260 265 263 258 253 252 254 254 253 253 248 245 244 239 241 242 237 234 233
256 250 250 258 265 264 259 259 258 247 248 252 254 255 253 256 259 254 250 248 249 248 254 256 256 261 264 259 260 264 261 257 254 255 243 238 236 233 230 228 228 227 226
255 252 253 256 261 261 261 259 252 239 242 251 252 252 253 256 258 263 265 244 248 258 256 258 260 260 261 270 267 264 263 262 258 252 240 237 234 237 235 230 226 224 225